{"data":{"norad_id":65758,"epoch":"2026-09-20T23:11:28.741632Z","epoch_age_seconds":68273,"freshness":"FRESH","line1":"1 65758U 25216AA  26263.96630488  .00020147  00000+0  60551-3 0  9993","line2":"2 65758  53.1601 143.5516 0002523  89.4692 270.6599 15.34415092 56434","mean_motion":15.34415092,"eccentricity":0.0002523,"inclination_deg":53.1601,"raan_deg":143.5516,"arg_perigee_deg":89.4692,"mean_anomaly_deg":270.6599,"bstar":0.00060551,"rev_number":5643,"period_min":93.846835025786,"perigee_km":460.9324512949,"apogee_km":464.38431664565,"semimajor_km":6840.7953839703,"source":"CELESTRAK","updated_at":"2026-09-21T09:00:35.712073Z"}}